Flag for Austria Weather past 2 weeks in Wels, Upper Austria, Austria

Now
59 °F

Light snow. Dense fog.


Feels Like: N/A
Forecast: 59 / 68 °F
Wind: N/A

Location: Linz / Hoersching-Flughafen

Current Time: Sep 20, 2014 at 8:34:41 AM

Latest Report: Sep 20, 2014 at 7:00 AM


Visibility: 0 mi

Pressure: 30.00 "Hg

Humidity: 99%

Dew point: 59 °F

Location of WelsLocation

Historic Weather in Wels — Graph

°F

Wels temperature yesterday

Maximum temperature yesterday: 75 °F (at 4:00 PM)
Minimum temperature yesterday: 54 °F (at 5:00 AM)
Average temperature yesterday: 64 °F

Past Weeks' High & Low Weather Summary

 TemperatureHumidityPressure
High79 °F (Sep 8, 5:00 PM)100% (Sep 6, 12:00 AM)30.11 "Hg (Sep 6, 12:00 AM)
Low53 °F (Sep 13, 4:00 AM)43% (Sep 17, 5:00 PM)29.88 "Hg (Sep 6, 5:00 PM)
Average62 °F82%29.98 "Hg
* Reported Sep 5 7:00 AM — Sep 20 7:00 AM, Wels, Weather by CustomWeather, © 2014

Note: Actual official high and low records may vary slightly from our data, if they occured in-between our weather recording intervals... More about our weather records

Advertising

Wels weather history for previous 24 hours

 ConditionsComfort  
Time TempWeatherWind HumidityBarometerVisibility
7:00 AM
Sep 20
59 °FLight snow. Dense fog.N/A99%30.00 "Hg0 mi
6:00 AM58 °FLight snow. Dense fog.N/A100%30.01 "Hg0 mi
5:00 AM57 °FLight snow. Passing clouds.N/A100%30.01 "Hg0 mi
4:00 AM58 °FLight snow. Passing clouds.N/A99%30.01 "Hg0 mi
3:00 AM58 °FLight snow. Passing clouds.N/A97%30.01 "Hg0 mi
2:00 AM61 °FPassing clouds.N/A96%30.00 "Hg1 mi
1:00 AM62 °FDrizzle. Low clouds.N/A95%30.00 "Hg2 mi
12:00 AMN/APassing clouds.21 mphN/AN/A11 mi
11:00 PM
Sep 19
64 °FOvercast.N/A82%29.98 "Hg6 mi
10:00 PM64 °FPassing clouds.N/A84%29.96 "Hg6 mi
9:00 PM63 °FPassing clouds.3 mph84%29.96 "Hg6 mi
8:00 PMN/APassing clouds.13 mphN/AN/A28 mi
7:00 PM68 °FPartly sunny.N/A69%29.92 "Hg11 mi
6:00 PM72 °FScattered clouds.3 mph62%29.91 "Hg19 mi
5:00 PM74 °FScattered clouds.3 mph55%29.92 "Hg14 mi
4:00 PM75 °FScattered clouds.N/A50%29.93 "Hg17 mi
3:00 PM73 °FPartly sunny.3 mph59%29.93 "Hg15 mi
2:00 PM71 °FPartly sunny.N/A58%29.96 "Hg22 mi
1:00 PM69 °FPassing clouds.N/A57%29.97 "Hg15 mi
12:00 PM66 °FPassing clouds.N/A63%29.98 "Hg11 mi
11:00 AM64 °FPassing clouds.N/A66%30.01 "Hg12 mi
10:00 AM61 °FPassing clouds.N/A74%30.01 "Hg11 mi
9:00 AM60 °FScattered clouds.N/A79%30.01 "Hg9 mi
8:00 AM56 °FScattered clouds.N/A86%30.00 "Hg8 mi
Weather by CustomWeather, © 2014

See weather overviewHow to use our weather pages